Location: Augsburg
(48.3677°N, 10.8923°E)
Time: 02:08:52
(UTC+01:00)

ISS - Visible Passes

Search period start: 08 December 2021 00:00
Search period end: 18 December 2021 00:00
Orbit: 417 x 422 km, 51.6° (Epoch: 07 December)

Date Brightness Start Highest point End Pass type
(mag) Time Alt. Az. Time Alt. Az. Time Alt. Az.
08 Dec -0.7 18:04:48 10° W 18:07:00 16° SW 18:09:11 10° S visible
09 Dec -1.2 17:16:58 10° W 17:19:47 24° SW 17:22:34 10° SSE visible
11 Dec 0.1 17:20:49 10° WSW 17:21:22 10° SW 17:21:55 10° SW visible
